Home > Weather > Wals-Siezenheim > Past weeks

Flag for Austria Past Weather in Wals-Siezenheim, Salzburg, Austria — Yesterday and Last 2 Weeks

Now
66 °F

Clear.


Feels Like: 66 °F
Forecast: 58 / 82 °F
Wind: 5 mph from Northwest

Location: Salzburg-Flughafen

Current Time: Aug 24, 2016 at 10:03:40 PM

Latest Report: Aug 24, 2016 at 9:20 PM


Visibility: 10 mi

Pressure: 30.21 "Hg

Humidity: 78%

Dew Point: 59 °F

Location of Wals-SiezenheimLocation

Past Weather in Wals-Siezenheim — Graph

°F

Wals-Siezenheim Temperature Yesterday

Maximum temperature yesterday: 77 °F (at 4:20 PM)
Minimum temperature yesterday: 54 °F (at 2:20 AM)
Average temperature yesterday: 64 °F

High & Low Weather Summary for the Past Weeks

 TemperatureHumidityPressure
High82 °F (Aug 20, 1:20 PM)100% (Aug 10, 2:50 AM)30.42 "Hg (Aug 10, 2:50 AM)
Low50 °F (Aug 11, 3:20 AM)40% (Aug 20, 2:50 PM)29.83 "Hg (Aug 18, 2:20 PM)
Average63 °F80%30.15 "Hg
* Reported Aug 9 8:20 PM — Aug 24 8:50 PM, Wals-Siezenheim, Weather by CustomWeather, © 2016

Note: Actual official high and low records may vary slightly from our data, if they occured in-between our weather recording intervals... More about our weather records

Advertising

Wals-Siezenheim Weather History for the Previous 24 Hours

Scroll right to see more
 ConditionsComfort  
Time TempWeatherWind HumidityBarometerVisibility
8:50 PM
Wed, Aug 24
68 °FSunny.6 mph73%30.21 "Hg10 mi
8:20 PM72 °FSunny.7 mph65%30.21 "Hg10 mi
7:50 PM75 °FSunny.7 mph57%30.21 "Hg10 mi
7:20 PM77 °FSunny.8 mph54%30.21 "Hg10 mi
6:50 PM77 °FSunny.9 mph54%30.21 "Hg10 mi
6:20 PM79 °FPassing clouds.9 mph51%30.21 "HgN/A
5:50 PM79 °FPassing clouds.12 mph51%30.21 "HgN/A
5:20 PM79 °FPassing clouds.10 mph51%30.21 "HgN/A
4:50 PM79 °FPassing clouds.12 mph51%30.21 "HgN/A
4:20 PM81 °FPassing clouds.10 mph48%30.21 "HgN/A
3:50 PM81 °FPassing clouds.9 mph48%30.21 "HgN/A
3:20 PM81 °FPassing clouds.10 mph48%30.24 "HgN/A
2:50 PM81 °FPassing clouds.9 mph48%30.24 "HgN/A
2:20 PM79 °FPassing clouds.9 mph54%30.24 "HgN/A
1:50 PM79 °FPassing clouds.8 mph51%30.24 "HgN/A
1:20 PM79 °FPassing clouds.8 mph54%30.24 "HgN/A
12:50 PM77 °FPassing clouds.9 mph54%30.24 "HgN/A
12:20 PM77 °FPassing clouds.8 mph54%30.27 "HgN/A
11:50 AM75 °FPassing clouds.5 mph57%30.27 "HgN/A
11:20 AM73 °FPassing clouds.6 mph57%30.27 "HgN/A
10:50 AM72 °FSunny.2 mph65%30.30 "Hg10 mi
10:20 AM72 °FSunny.2 mph61%30.30 "Hg10 mi
9:50 AM70 °FPassing clouds.5 mph69%30.30 "HgN/A
9:20 AM66 °FSunny.7 mph73%30.30 "Hg10 mi
8:50 AM64 °FPassing clouds.7 mph78%30.30 "HgN/A
8:20 AM63 °FSunny.3 mph83%30.30 "Hg10 mi
7:50 AM61 °FPassing clouds.3 mph83%30.30 "HgN/A
7:20 AM59 °FPassing clouds.3 mph88%30.30 "HgN/A
6:50 AM54 °FClear.2 mph94%30.30 "Hg10 mi
6:20 AM55 °FPassing clouds.3 mph94%30.30 "HgN/A
5:50 AM55 °FPassing clouds.3 mph94%30.30 "HgN/A
5:20 AM55 °FCool.3 mph94%30.30 "HgN/A
4:50 AM54 °FPassing clouds.2 mph94%30.30 "HgN/A
4:20 AM55 °FPassing clouds.2 mph94%30.30 "HgN/A
3:50 AM57 °FPassing clouds.3 mph94%30.30 "HgN/A
3:20 AM57 °FCool.5 mph94%30.30 "HgN/A
2:50 AM57 °FPassing clouds.3 mph94%30.33 "HgN/A
2:20 AM57 °FPassing clouds.3 mph94%30.33 "HgN/A
1:50 AM59 °FPassing clouds.5 mph88%30.33 "HgN/A
1:20 AM57 °FCool.5 mph94%30.33 "HgN/A
12:50 AM59 °FCool.7 mph88%30.33 "HgN/A
12:20 AM61 °FPassing clouds.6 mph88%30.33 "HgN/A
11:50 PM
Tue, Aug 23
61 °FPassing clouds.2 mph88%30.33 "HgN/A
11:20 PM61 °FCool.2 mph88%30.33 "HgN/A
10:50 PM61 °FClear.5 mph83%30.33 "Hg10 mi
10:20 PM63 °FClear.5 mph83%30.33 "Hg10 mi
Weather by CustomWeather, © 2016

See weather overviewHow to use our weather pages